Flag Weather past 2 weeks in Redlands, California, U.S.A.

Now
40 °F

Clear.


Feels Like: 40 °F
Forecast: 48 / 79 °F
Wind: No wind

Location: Riverside / March Air Force Base

Current Time: Nov 28, 2014 at 4:41:56 AM

Latest Report: Nov 28, 2014 at 3:58 AM


Visibility: 10 mi

Pressure: 30.00 "Hg

Humidity: 36%

Dew point: 15 °F

Location of RedlandsLocation

Historic Weather in Redlands — Graph

°F

Redlands temperature yesterday

Maximum temperature yesterday: 86 °F (at 2:58 PM)
Minimum temperature yesterday: 41 °F (at 4:58 AM)
Average temperature yesterday: 61 °F

Past Weeks' High & Low Weather Summary

 TemperatureHumidityPressure
High86 °F (Nov 27, 2:58 PM)100% (Nov 15, 4:58 AM)30.41 "Hg (Nov 15, 4:58 AM)
Low39 °F (Nov 19, 3:58 AM)5% (Nov 16, 1:58 PM)29.91 "Hg (Nov 21, 4:58 AM)
Average58 °F45%30.11 "Hg
* Reported Nov 13 3:58 AM — Nov 28 3:58 AM, Redlands, Weather by CustomWeather, © 2014

Note: Actual official high and low records may vary slightly from our data, if they occured in-between our weather recording intervals... More about our weather records

Advertising

Redlands weather history for previous 24 hours

 ConditionsComfort  
Time TempWeatherWind HumidityBarometerVisibility
3:58 AM
Nov 28
40 °FClear.No wind36%30.00 "Hg10 mi
2:58 AM41 °FClear.No wind34%30.01 "Hg10 mi
1:58 AM44 °FClear.No wind33%30.01 "Hg10 mi
12:58 AM46 °FClear.No wind32%30.01 "Hg10 mi
11:58 PM
Nov 27
47 °FClear.No wind28%30.03 "Hg10 mi
10:58 PM49 °FClear.No wind26%30.04 "Hg10 mi
9:58 PM53 °FClear.No wind25%30.05 "Hg10 mi
8:58 PM54 °FClear.No wind22%30.06 "Hg10 mi
7:58 PM60 °FClear.3 mph20%30.06 "Hg10 mi
6:58 PM60 °FClear.3 mph18%30.07 "Hg10 mi
5:58 PM67 °FClear.1 mph14%30.05 "Hg10 mi
4:58 PM72 °FClear.2 mph11%30.04 "Hg10 mi
3:58 PM83 °FSunny.6 mph7%30.03 "Hg10 mi
2:58 PM86 °FSunny.7 mph6%30.02 "Hg10 mi
1:58 PM86 °FPartly sunny.3 mph6%30.03 "Hg10 mi
12:58 PM85 °FSunny.2 mph6%30.06 "Hg10 mi
11:58 AM83 °FSunny.3 mph8%30.07 "Hg10 mi
10:58 AM80 °FSunny.2 mph10%30.11 "Hg9 mi
9:58 AM75 °FSunny.2 mph12%30.14 "Hg10 mi
8:58 AM67 °FSunny.3 mph17%30.16 "Hg10 mi
7:58 AM53 °FSunny.No wind29%30.16 "Hg10 mi
6:58 AM41 °FQuite cool.N/A39%30.17 "HgN/A
5:58 AM41 °FClear.No wind41%30.15 "Hg10 mi
4:58 AM41 °FClear.2 mph42%30.14 "Hg10 mi
Weather by CustomWeather, © 2014

See weather overviewHow to use our weather pages